Regional Weather Roundup
Issued by NWS Sioux Falls, SD

Home | Current Version | Previous Version | Text Only | Print | Product List | Glossary Off
Versions: 1 2 3 4 5 6 7 8 9 10 11 12 13 14 15 16 17 18 19 20 21 22 23 24 25 26 27 28 29 30 31 32 33 34 35 36 37 38 39 40 41 42 43 44 45 46 47 48 49 50

847
ASUS43 KFSD 181510
RWRFSD

WEATHER ROUNDUP FOR SE SOUTH DAKOTA/SW MINNESOTA/NW IOWA
NATIONAL WEATHER SERVICE SIOUX FALLS SD
1000 AM CDT FRI AUG 18 2017

NOTE: "FAIR" INDICATES FEW OR NO CLOUDS BELOW 12,000 FEET WITH NO
SIGNIFICANT WEATHER AND OR OBSTRUCTIONS TO VISIBILITY.


SDZ038>040-050-052>070-181600-
SOUTHEAST SOUTH DAKOTA

CITY           SKY/WX    TMP DP  RH WIND       PRES   REMARKS
BROOKINGS      SUNNY     66  60  81 S6        29.94S
CHAMBERLAIN    MOSUNNY   66  64  91 SW12      29.93R
HURON          SUNNY     69  62  78 S9        29.90F
MADISON        FAIR      66  66 100 S8        29.94F
MITCHELL       SUNNY     69  62  78 S7        29.93R
SIOUX FALLS    MOSUNNY   70  63  78 SE6       29.94S
WINNER         FAIR      71  55  56 W10       29.95F
YANKTON        SUNNY     71  62  73 CALM      29.95R
$$

MNZ071-072-080-081-089-090-097-098-181600-
SOUTHWEST MINNESOTA

CITY           SKY/WX    TMP DP  RH WIND       PRES   REMARKS
FAIRMONT       LGT RAIN  63  61  93 NW3       29.96R
JACKSON        LGT SNOW  61  59  94 CALM      29.97S
LUVERNE        SUNNY     64  55  72 SE5       29.96F
MARSHALL       CLOUDY    64  61  90 SW6       29.93R
MONTEVIDEO     DRIZZLE   63  61  94 W3        29.91R
PIPESTONE      SUNNY     70  63  78 S3        29.94S
REDWOOD FALLS  LGT RAIN  62  58  86 S9        29.91
TRACY          PTSUNNY   64  63  97 SW6       29.94R
WINDOM         LGT RAIN  63  61  94 S7        29.94F
WORTHINGTON    CLOUDY    62  60  93 E3        29.96F
$$

IAZ001>003-012>014-020>022-031-032-NEZ013-014-SDZ071-181600-
NORTHWEST IOWA

CITY           SKY/WX    TMP DP  RH WIND       PRES   REMARKS
CHEROKEE       SUNNY     71  65  81 NE8       29.95R
DENISON        SUNNY     73  64  73 W5        29.94S
ESTHERVILLE    CLOUDY    63  61  93 CALM      29.96R
LE MARS        SUNNY     72  63  73 VRB7      29.94R
ORANGE CITY    SUNNY     72  63  73 E6        29.95S
SHELDON        MOSUNNY   68  59  73 NE6       29.95R
SIOUX CITY     SUNNY     72  64  76 N6        29.93S
SPENCER        CLOUDY    66  60  81 N9        29.97
STORM LAKE     SUNNY     68  63  83 NE12      29.95R
$$

ABBREVIATIONS USED IN REMARKS
   TC - TEMPERATURE IN CELSIUS
  WCI - WIND CHILL INDEX
   HX - HEAT INDEX
  VSB - VISIBILITY





USA.gov is the U.S. government's official web portal to all federal, state and local government web resources and services.